CW4517 Weather Reports


Display with metric or nautical units.
time (UTC)temp
F
wind
direction
speed
MPH
gust
MPH
rain 1hr
in
rain 24hr
in
rain mn
in
humidity
%
barometer
mb
20260508205214 66 271 3.0 10.0 0.00 0.00 0.00 61 1003.4
20260508205159 65 186 4.0 7.0 0.00 0.00 0.00 61 1003.4
20260508204213 65 190 3.0 7.0 0.00 0.00 0.00 62 1003.4
20260508203700 65 196 2.0 5.0 0.00 0.00 0.00 63 1003.4
20260508203158 65 162 2.0 6.0 0.00 0.00 0.00 62 1003.8
20260508202659 64 149 3.0 9.0 0.00 0.00 0.00 63 1003.8
20260508202424 64 232 3.0 9.0 0.00 0.00 0.00 63 1003.8
20260508201658 65 223 3.0 9.0 0.00 0.00 0.00 62 1003.9
20260508201202 65 219 3.0 9.0 0.00 0.00 0.00 62 1003.9
20260508201141 65 192 3.0 7.0 0.00 0.00 0.00 63 1003.9
20260508200158 65 170 3.0 9.0 0.00 0.00 0.00 61 1004.2
20260508195700 65 223 2.0 8.0 0.00 0.00 0.00 60 1004.2
20260508195155 65 199 2.0 6.0 0.00 0.00 0.00 61 1004.2
20260508194646 65 150 3.0 8.0 0.00 0.00 0.00 59 1004.4
20260508194411 65 225 3.0 8.0 0.00 0.00 0.00 60 1004.4
20260508193637 65 253 2.0 7.0 0.00 0.00 0.00 61 1004.4
20260508193130 65 122 2.0 5.0 0.00 0.00 0.00 62 1004.4
20260508192627 65 272 2.0 5.0 0.00 0.00 0.00 59 1004.4
20260508192120 65 194 3.0 5.0 0.00 0.00 0.00 61 1004.4
20260508191613 65 184 3.0 6.0 0.00 0.00 0.00 62 1004.5
20260508191103 65 135 3.0 6.0 0.00 0.00 0.00 63 1004.5
20260508190826 65 233 2.0 5.0 0.00 0.00 0.00 64 1004.5
20260508190320 64 146 3.0 6.0 0.00 0.00 0.00 63 1004.7
20260508185814 64 107 3.0 7.0 0.00 0.00 0.00 63 1004.7
20260508185044 64 200 4.0 7.0 0.00 0.00 0.00 64 1004.7
20260508184533 65 257 3.0 8.0 0.00 0.00 0.00 61 1005.0
20260508184030 65 167 3.0 8.0 0.00 0.00 0.00 61 1005.0
20260508183524 65 96 3.0 5.0 0.00 0.00 0.00 61 1005.0
20260508183018 64 194 3.0 9.0 0.00 0.00 0.00 62 1005.0
20260508182737 64 161 3.0 9.0 0.00 0.00 0.00 62 1005.0
20260508182001 64 198 3.0 7.0 0.00 0.00 0.00 61 1005.0
20260508181500 64 117 2.0 4.0 0.00 0.00 0.00 61 1005.2
20260508180955 64 117 2.0 6.0 0.00 0.00 0.00 63 1005.2
20260508180444 63 152 4.0 6.0 0.00 0.00 0.00 60 1005.4
20260508175943 63 203 3.0 6.0 0.00 0.00 0.00 61 1005.4
20260508175659 64 227 2.0 5.0 0.00 0.00 0.00 62 1005.4
20260508174931 64 249 2.0 6.0 0.00 0.00 0.00 62 1005.5
20260508174420 64 150 3.0 6.0 0.00 0.00 0.00 60 1005.5
20260508173919 64 69 3.0 6.0 0.00 0.00 0.00 59 1005.5
20260508173413 64 130 3.0 8.0 0.00 0.00 0.00 62 1005.9
20260508173127 64 164 2.0 8.0 0.00 0.00 0.00 63 1005.9
20260508172400 64 121 2.0 4.0 0.00 0.00 0.00 63 1005.9
20260508171849 64 223 2.0 6.0 0.00 0.00 0.00 65 1006.1
20260508171347 63 250 2.0 6.0 0.00 0.00 0.00 64 1006.1
20260508170843 63 217 2.0 6.0 0.00 0.00 0.00 66 1006.1
20260508170336 62 189 3.0 6.0 0.00 0.00 0.00 66 1006.5
20260508170053 62 138 3.0 6.0 0.00 0.00 0.00 68 1006.5
20260508165324 61 109 3.0 6.0 0.00 0.00 0.00 69 1006.5
20260508165040 61 238 2.0 6.0 0.00 0.00 0.00 68 1006.6
20260508164313 61 170 2.0 6.0 0.00 0.00 0.00 70 1006.6
20260508163802 60 207 3.0 7.0 0.00 0.00 0.00 70 1006.6
20260508163513 60 217 3.0 7.0 0.00 0.00 0.00 70 1006.9
20260508162737 60 202 2.0 6.0 0.00 0.00 0.00 71 1006.9
20260508162232 60 206 2.0 6.0 0.00 0.00 0.00 70 1006.9
20260508161731 60 171 2.0 5.0 0.00 0.00 0.00 71 1007.0
20260508161232 60 138 2.0 5.0 0.00 0.00 0.00 71 1007.0
20260508160735 60 201 2.0 5.0 0.00 0.00 0.00 71 1007.0
20260508160234 60 157 2.0 5.0 0.00 0.00 0.00 70 1007.0
20260508155731 60 207 2.0 4.0 0.00 0.00 0.00 72 1007.0
20260508155457 60 139 2.0 5.0 0.00 0.00 0.00 72 1007.0
20260508154731 60 221 2.0 7.0 0.00 0.00 0.00 71 1007.1
20260508154230 60 178 2.0 7.0 0.00 0.00 0.00 71 1007.1
20260508153728 60 231 2.0 6.0 0.00 0.00 0.00 70 1007.1
20260508153224 60 209 2.0 4.0 0.00 0.00 0.00 72 1007.2
20260508152717 59 209 2.0 7.0 0.00 0.00 0.00 73 1007.2
20260508152211 59 190 2.0 7.0 0.00 0.00 0.00 72 1007.2
20260508151659 59 140 2.0 6.0 0.00 0.00 0.00 72 1007.2
20260508151159 59 211 3.0 7.0 0.00 0.00 0.00 72 1007.2
20260508150647 58 202 3.0 8.0 0.00 0.00 0.00 73 1007.2
20260508150147 59 238 3.0 8.0 0.00 0.00 0.00 71 1007.4
20260508145640 59 230 3.0 8.0 0.00 0.00 0.00 73 1007.4
20260508145133 58 190 3.0 8.0 0.00 0.00 0.00 73 1007.4
20260508144629 58 217 3.0 7.0 0.00 0.00 0.00 73 1007.3
20260508144117 58 222 2.0 7.0 0.00 0.00 0.00 75 1007.3
20260508143615 57 155 2.0 5.0 0.00 0.00 0.00 76 1007.3
20260508143111 57 223 3.0 5.0 0.00 0.00 0.00 77 1007.4
20260508142827 56 244 2.0 5.0 0.00 0.00 0.00 78 1007.4
20260508142319 56 198 2.0 6.0 0.00 0.00 0.00 79 1007.4
20260508141547 56 196 2.0 6.0 0.00 0.00 0.00 80 1007.6
20260508141312 55 144 3.0 7.0 0.00 0.00 0.00 82 1007.6
20260508140805 55 206 3.0 7.0 0.00 0.00 0.00 81 1007.6
20260508140033 55 232 2.0 5.0 0.00 0.00 0.00 83 1007.6
20260508135527 55 167 2.0 7.0 0.00 0.00 0.00 84 1007.6
20260508135022 54 226 2.0 7.0 0.00 0.00 0.00 85 1007.6
20260508134516 53 225 3.0 7.0 0.00 0.00 0.00 85 1007.6
20260508134006 53 188 3.0 8.0 0.00 0.00 0.00 85 1007.6
20260508133504 53 200 3.0 8.0 0.00 0.00 0.00 85 1007.6
20260508132958 53 232 2.0 5.0 0.00 0.00 0.00 85 1007.5
20260508132450 53 227 2.0 5.0 0.00 0.00 0.00 86 1007.5
20260508131945 52 148 2.0 3.0 0.00 0.00 0.00 86 1007.6
20260508131435 52 123 2.0 4.0 0.00 0.00 0.00 87 1007.6
20260508130934 51 130 2.0 4.0 0.00 0.00 0.00 87 1007.6
20260508130656 51 162 1.0 4.0 0.00 0.00 0.00 87 1007.6
20260508125933 51 162 1.0 4.0 0.00 0.00 0.00 88 1007.6
20260508125432 50 107 1.0 3.0 0.00 0.00 0.00 88 1007.6
20260508124931 50 154 1.0 3.0 0.00 0.00 0.00 87 1007.6
20260508124429 50 128 1.0 3.0 0.00 0.00 0.00 87 1007.6
20260508123929 49 120 1.0 3.0 0.00 0.00 0.00 88 1007.6
20260508123429 49 173 0.0 3.0 0.00 0.00 0.00 88 1007.5
20260508122929 49 157 1.0 4.0 0.00 0.00 0.00 87 1007.5
20260508122430 49 149 2.0 4.0 0.00 0.00 0.00 87 1007.5
20260508121926 49 145 1.0 4.0 0.00 0.00 0.00 87 1007.6
20260508121427 49 147 1.0 6.0 0.00 0.00 0.00 87 1007.6
20260508120927 49 182 2.0 7.0 0.00 0.00 0.00 87 1007.6
20260508120424 49 214 2.0 7.0 0.00 0.00 0.00 87 1007.4
20260508115928 48 200 2.0 6.0 0.00 0.00 0.00 87 1007.4
20260508115648 48 216 2.0 5.0 0.00 0.00 0.00 87 1007.4
20260508114922 48 174 2.0 5.0 0.00 0.00 0.00 87 1007.5
20260508114409 48 200 1.0 4.0 0.00 0.00 0.00 87 1007.5
20260508113857 48 204 0.0 3.0 0.00 0.00 0.00 87 1007.5
20260508113345 48 173 1.0 3.0 0.00 0.00 0.00 86 1007.2
20260508112835 48 173 1.0 3.0 0.00 0.00 0.00 87 1007.2
20260508112321 48 173 1.0 3.0 0.00 0.00 0.00 86 1007.2
20260508111809 48 185 1.0 3.0 0.00 0.00 0.00 86 1007.1
20260508111258 48 204 0.0 2.0 0.00 0.00 0.00 86 1007.1
20260508110745 48 204 0.0 2.0 0.00 0.00 0.00 85 1007.1
20260508110511 48 204 0.0 0.0 0.00 0.00 0.00 85 1007.2
20260508105738 48 204 0.0 2.0 0.00 0.00 0.00 85 1007.2
20260508105231 48 204 1.0 2.0 0.00 0.00 0.00 85 1007.2
20260508104726 48 204 1.0 3.0 0.00 0.00 0.00 85 1007.2
20260508104212 47 245 1.0 3.0 0.00 0.00 0.00 85 1007.2
20260508103713 47 245 0.0 2.0 0.00 0.00 0.00 85 1007.2
20260508103208 47 245 0.0 1.0 0.00 0.00 0.00 85 1007.3
20260508102701 47 245 0.0 1.0 0.00 0.00 0.00 84 1007.3
20260508102157 47 245 0.0 0.0 0.00 0.00 0.00 84 1007.3
20260508101642 47 245 0.0 0.0 0.00 0.00 0.00 84 1007.5
20260508101413 47 245 0.0 0.0 0.00 0.00 0.00 84 1007.5
20260508101118 47 245 0.0 0.0 0.00 0.00 0.00 83 1007.5
20260508100131 48 245 0.0 0.0 0.00 0.00 0.00 83 1007.2
20260508095626 48 245 0.0 1.0 0.00 0.00 0.00 83 1007.2
20260508095116 48 245 0.0 1.0 0.00 0.00 0.00 83 1007.2
20260508094614 48 245 0.0 1.0 0.00 0.00 0.00 83 1007.6
20260508094101 48 245 1.0 2.0 0.00 0.00 0.00 83 1007.6
20260508093600 48 245 1.0 2.0 0.00 0.00 0.00 83 1007.6
20260508093057 48 223 1.0 2.0 0.00 0.00 0.00 83 1007.5
20260508092545 48 223 0.0 2.0 0.00 0.00 0.00 83 1007.5
20260508092044 48 223 1.0 3.0 0.00 0.00 0.00 83 1007.5
20260508091534 48 223 2.0 3.0 0.00 0.00 0.00 83 1007.5
20260508091031 48 223 2.0 3.0 0.00 0.00 0.00 83 1007.5
20260508090525 48 223 1.0 2.0 0.00 0.00 0.00 83 1007.5
20260508090019 48 223 0.0 2.0 0.00 0.00 0.00 83 1007.6
20260508085734 48 223 1.0 2.0 0.00 0.00 0.00 83 1007.6
20260508084959 48 223 1.0 2.0 0.00 0.00 0.00 82 1007.6
20260508084502 48 223 1.0 3.0 0.00 0.00 0.00 82 1007.6
20260508083956 48 223 1.0 4.0 0.00 0.00 0.00 82 1007.6
20260508083445 48 226 2.0 5.0 0.00 0.00 0.00 81 1007.6
20260508082944 49 225 3.0 5.0 0.00 0.00 0.00 81 1007.6
20260508082437 49 204 3.0 6.0 0.00 0.00 0.00 81 1007.6
20260508081931 49 236 4.0 6.0 0.00 0.00 0.00 80 1007.6
20260508081418 49 229 3.0 6.0 0.00 0.00 0.00 80 1007.6
20260508080915 49 229 3.0 6.0 0.00 0.00 0.00 80 1007.6
20260508080413 50 215 3.0 6.0 0.00 0.00 0.00 80 1007.7
20260508075912 50 250 3.0 6.0 0.00 0.00 0.00 80 1007.7
20260508075634 49 228 3.0 8.0 0.00 0.00 0.00 81 1007.7
20260508074911 49 240 3.0 8.0 0.00 0.00 0.00 81 1007.8
20260508074412 49 234 3.0 5.0 0.00 0.00 0.00 82 1007.8
20260508073912 48 207 3.0 5.0 0.00 0.00 0.00 82 1007.8
20260508073412 48 233 3.0 6.0 0.00 0.00 0.00 82 1008.0
20260508072915 48 220 3.0 6.0 0.00 0.00 0.00 82 1008.0
20260508072416 48 217 3.0 5.0 0.00 0.00 0.00 82 1008.0
20260508071909 48 211 3.0 5.0 0.00 0.00 0.00 83 1008.1
20260508071356 48 231 3.0 5.0 0.00 0.00 0.00 83 1008.1
20260508070847 48 216 3.0 4.0 0.00 0.00 0.00 83 1008.1
20260508070340 48 227 3.0 4.0 0.00 0.00 0.00 83 1008.1
20260508070050 47 227 2.0 4.0 0.00 0.00 0.00 83 1008.1
20260508065319 47 223 1.0 4.0 0.00 0.00 0.00 83 1008.1
20260508064821 47 238 1.0 5.0 0.00 0.00 0.00 82 1008.1
20260508064315 48 237 1.0 5.0 0.00 0.00 0.00 82 1008.1
20260508063810 48 245 2.0 4.0 0.00 0.00 0.00 82 1008.1
20260508063302 48 245 2.0 4.0 0.00 0.00 0.00 82 1008.2
20260508062756 48 240 2.0 5.0 0.00 0.00 0.00 82 1008.2
20260508062513 48 238 2.0 5.0 0.00 0.00 0.00 82 1008.2
20260508061741 48 213 2.0 6.0 0.00 0.00 0.00 82 1008.1
20260508061238 48 227 3.0 6.0 0.00 0.00 0.00 82 1008.1
20260508060732 47 233 3.0 6.0 0.00 0.00 0.00 82 1008.1
20260508060445 47 227 2.0 4.0 0.00 0.00 0.00 82 1008.2
20260508055721 47 220 3.0 6.0 0.00 0.00 0.00 81 1008.2
20260508055654 47 198 3.0 6.0 0.00 0.00 0.00 82 1008.2
20260508054708 47 230 3.0 4.0 0.00 0.00 0.00 81 1008.1
20260508054202 48 215 3.0 4.0 0.00 0.00 0.00 81 1008.1
20260508053656 48 216 3.0 5.0 0.00 0.00 0.00 81 1008.1
20260508053151 48 232 3.0 6.0 0.00 0.00 0.00 81 1008.1
20260508052645 48 255 2.0 6.0 0.00 0.00 0.00 81 1008.1
20260508052140 48 240 2.0 5.0 0.00 0.00 0.00 81 1008.1
20260508051629 48 223 1.0 3.0 0.00 0.00 0.00 81 1008.1
20260508051348 48 236 1.0 3.0 0.00 0.00 0.00 81 1008.1
20260508050619 48 238 2.0 4.0 0.00 0.00 0.00 81 1008.1
20260508050116 48 234 2.0 4.0 0.00 0.00 0.00 80 1007.8
20260508045611 48 289 2.0 4.0 0.00 0.00 0.00 80 1007.8
20260508045330 49 245 3.0 8.0 0.00 0.00 0.00 80 1007.8
20260508044559 49 223 4.0 8.0 0.00 0.00 0.00 80 1007.7
20260508044049 49 222 4.0 7.0 0.00 0.00 0.00 79 1007.7
20260508043547 49 223 4.0 7.0 0.00 0.00 0.00 79 1007.7
20260508043041 49 222 4.0 7.0 0.00 0.00 0.00 79 1007.6
20260508042800 49 221 4.0 7.0 0.00 0.00 0.00 78 1007.6
20260508042030 49 245 4.0 8.0 0.00 0.00 0.00 78 1007.6
20260508041523 50 229 4.0 8.0 0.00 0.00 0.00 78 1007.6
20260508041244 50 228 4.0 7.0 0.00 0.00 0.00 77 1007.6
20260508040729 50 217 3.0 7.0 0.00 0.00 0.00 77 1007.6
20260508040227 50 215 3.0 7.0 0.00 0.00 0.00 77 1007.6
20260508035457 50 212 3.0 7.0 0.00 0.00 0.00 77 1007.6
20260508034947 50 223 3.0 7.0 0.00 0.00 0.00 76 1007.6
20260508034446 50 224 3.0 8.0 0.00 0.00 0.00 76 1007.6
20260508034158 50 213 3.0 8.0 0.00 0.00 0.00 76 1007.6
20260508033434 50 215 4.0 6.0 0.00 0.00 0.00 76 1007.6
20260508032928 50 216 4.0 7.0 0.00 0.00 0.00 76 1007.6
20260508032421 51 225 4.0 8.0 0.00 0.00 0.00 75 1007.6
20260508031915 51 210 4.0 8.0 0.00 0.00 0.00 75 1007.4
20260508031405 51 227 4.0 8.0 0.00 0.00 0.00 74 1007.4
20260508030905 51 225 4.0 9.0 0.00 0.00 0.00 74 1007.4
20260508030404 51 232 3.0 9.0 0.00 0.00 0.00 73 1007.4
20260508025904 51 239 2.0 5.0 0.00 0.00 0.00 72 1007.4
20260508025404 52 210 2.0 3.0 0.00 0.00 0.00 71 1007.4
20260508024905 52 198 2.0 4.0 0.00 0.00 0.00 70 1007.4
20260508024405 52 207 2.0 4.0 0.00 0.00 0.00 70 1007.4
20260508024130 52 205 2.0 4.0 0.00 0.00 0.00 70 1007.4
20260508023405 52 192 2.0 4.0 0.00 0.00 0.00 70 1007.2
20260508022905 51 196 2.0 4.0 0.00 0.00 0.00 71 1007.2
20260508022407 51 226 1.0 4.0 0.00 0.00 0.00 71 1007.2
20260508021907 51 223 0.0 4.0 0.00 0.00 0.00 72 1007.2
20260508021401 51 177 0.0 0.0 0.00 0.00 0.00 72 1007.2
20260508020851 51 186 0.0 0.0 0.00 0.00 0.00 72 1007.2
20260508020334 51 186 0.0 0.0 0.00 0.00 0.00 73 1007.1
20260508015823 51 169 0.0 0.0 0.00 0.00 0.00 73 1007.1
20260508015312 51 180 0.0 0.0 0.00 0.00 0.00 73 1007.1
20260508014758 51 153 0.0 0.0 0.00 0.00 0.00 73 1006.8
20260508014514 51 85 0.0 0.0 0.00 0.00 0.00 73 1006.8
20260508013742 51 85 0.0 0.0 0.00 0.00 0.00 73 1006.8
20260508013717 51 85 0.0 0.0 0.00 0.00 0.00 73 1006.6
20260508012736 51 85 0.0 0.0 0.00 0.00 0.00 73 1006.6
20260508012228 52 85 0.0 0.0 0.00 0.00 0.00 73 1006.6
20260508011723 52 27 0.0 0.0 0.00 0.00 0.00 73 1006.6
20260508011213 52 27 0.0 0.0 0.00 0.00 0.00 73 1006.6
20260508010712 53 24 0.0 0.0 0.00 0.00 0.00 72 1006.6
20260508010201 53 13 0.0 0.0 0.00 0.00 0.00 72 1006.6
20260508005659 53 13 0.0 0.0 0.00 0.00 0.00 71 1006.6
20260508005647 54 13 0.0 0.0 0.00 0.00 0.00 71 1006.6
20260508004912 54 13 0.0 0.0 0.00 0.00 0.00 70 1006.5
20260508004142 55 13 0.0 0.0 0.00 0.00 0.00 69 1006.5
20260508003857 55 13 0.0 0.0 0.00 0.00 0.00 69 1006.5
20260508003355 56 13 0.0 0.0 0.00 0.00 0.00 68 1006.5
20260508002623 56 13 0.0 0.0 0.00 0.00 0.00 68 1006.5
20260508002341 56 13 0.0 0.0 0.00 0.00 0.00 67 1006.5
20260508001610 56 13 0.0 0.0 0.00 0.00 0.00 67 1006.5
20260508001101 55 13 0.0 0.0 0.00 0.00 0.00 68 1006.5
20260508000558 55 13 0.0 1.0 0.00 0.00 0.00 68 1006.5
20260508000053 55 13 0.0 2.0 0.00 0.00 0.00 68 1006.5
20260507235546 55 13 1.0 4.0 0.00 0.00 0.00 68 1006.5
20260507235041 55 5 1.0 4.0 0.00 0.00 0.00 68 1006.5
20260507234534 55 342 2.0 5.0 0.00 0.00 0.00 67 1006.5
20260507234251 55 282 2.0 5.0 0.00 0.00 0.00 67 1006.5
20260507233522 55 5 2.0 6.0 0.00 0.00 0.00 66 1006.5
20260507233016 55 54 3.0 7.0 0.00 0.00 0.00 65 1006.5
20260507232510 56 34 4.0 8.0 0.00 0.00 0.00 63 1006.5
20260507232004 56 36 4.0 8.0 0.00 0.00 0.00 62 1006.5
20260507231458 58 0 4.0 10.0 0.00 0.00 0.00 58 1006.3
20260507230948 60 34 6.0 18.0 0.00 0.00 0.00 56 1006.3
20260507230713 60 221 7.0 18.0 0.00 0.00 0.00 55 1006.3
20260507225939 60 246 6.0 17.0 0.00 0.00 0.00 58 1006.3
20260507225428 60 186 7.0 17.0 0.00 0.00 0.00 58 1006.3
20260507224927 59 234 7.0 18.0 0.00 0.00 0.00 58 1006.6
20260507224421 59 232 8.0 18.0 0.00 0.00 0.00 57 1006.6
20260507223919 59 225 8.0 15.0 0.00 0.00 0.00 57 1006.6
20260507223640 59 229 7.0 15.0 0.00 0.00 0.00 56 1006.7
20260507222920 60 197 7.0 14.0 0.00 0.00 0.00 57 1006.7
20260507222420 59 255 8.0 14.0 0.00 0.00 0.00 58 1006.7
20260507221920 59 225 8.0 14.0 0.00 0.00 0.00 57 1006.8
20260507221419 59 211 7.0 14.0 0.00 0.00 0.00 59 1006.8
20260507220919 58 221 7.0 14.0 0.00 0.00 0.00 59 1006.8
20260507220419 58 213 7.0 14.0 0.00 0.00 0.00 60 1007.1
20260507215920 58 220 8.0 16.0 0.00 0.00 0.00 60 1007.1
20260507215419 57 231 9.0 16.0 0.00 0.00 0.00 61 1007.1
20260507214914 57 219 9.0 16.0 0.00 0.00 0.00 61 1007.1
20260507214402 57 227 9.0 20.0 0.00 0.00 0.00 61 1007.1
20260507213849 57 220 9.0 20.0 0.00 0.00 0.00 60 1007.1
20260507213337 57 215 10.0 23.0 0.00 0.00 0.00 60 1007.2
20260507212831 57 275 10.0 23.0 0.00 0.00 0.00 62 1007.2
20260507212546 56 220 10.0 21.0 0.00 0.00 0.00 61 1007.2
20260507211819 56 227 11.0 21.0 0.00 0.00 0.00 62 1007.1
20260507211538 56 248 11.0 21.0 0.00 0.00 0.00 61 1007.1
20260507210807 57 248 10.0 21.0 0.00 0.00 0.00 61 1007.1
20260507210301 57 204 10.0 19.0 0.00 0.00 0.00 61 1007.2
20260507205755 57 235 9.0 21.0 0.00 0.00 0.00 61 1007.2